Regional Weather Roundup
Issued by NWS Sioux Falls, SD

Home | Current Version | Previous Version | Text Only | Print | Product List | Glossary On
Versions: 1 2 3 4 5 6 7 8 9 10 11 12 13 14 15 16 17 18 19 20 21 22 23 24 25 26 27 28 29 30 31 32 33 34 35 36 37 38 39 40 41 42 43 44 45 46 47 48 49 50
000
ASUS43 KFSD 240610
RWRFSD

WEATHER ROUNDUP FOR SE SOUTH DAKOTA/SW MINNESOTA/NW IOWA
NATIONAL WEATHER SERVICE SIOUX FALLS SD
100 AM CDT SAT JUN 24 2017

NOTE: "FAIR" INDICATES FEW OR NO CLOUDS BELOW 12,000 FEET WITH NO
SIGNIFICANT WEATHER AND OR OBSTRUCTIONS TO VISIBILITY.


SDZ038>040-050-052>070-240700-
SOUTHEAST SOUTH DAKOTA

CITY           SKY/WX    TMP DP  RH WIND       PRES   REMARKS
BROOKINGS      CLEAR     48  42  80 NW7       30.10R
CHAMBERLAIN    CLEAR     56  41  57 CALM      30.16S
6HR MIN TEMP:  55; 6HR MAX TEMP:  71;

HURON          CLEAR     47  44  90 W6        30.13R
6HR MIN TEMP:  47; 6HR MAX TEMP:  68;

MADISON        FAIR      48  43  81 NW8       30.12R
MITCHELL       CLEAR     53  40  61 W7        30.14R
6HR MIN TEMP:  53; 6HR MAX TEMP:  71;

SIOUX FALLS    CLEAR     52  43  71 W8        30.10R
6HR MIN TEMP:  52; 6HR MAX TEMP:  68;

WINNER         FAIR      50  35  56 W6        30.18R
$$

MNZ071-072-080-081-089-090-097-098-240700-
SOUTHWEST MINNESOTA

CITY           SKY/WX    TMP DP  RH WIND       PRES   REMARKS
FAIRMONT       CLEAR     57  46  66 W12       30.03S
JACKSON        PTCLDY    54  45  71 W9        30.06R
LUVERNE        CLEAR     50  41  71 NW7       30.10R
MARSHALL       CLEAR     52  44  74 W10       30.06S
6HR MIN TEMP:  52; 6HR MAX TEMP:  65;

MONTEVIDEO     PTCLDY    54  43  66 NW5       30.04S
PIPESTONE      CLEAR     54  43  66 NW6       30.09R
REDWOOD FALLS  CLEAR     54  44  69 NW9       30.03R
TRACY          CLEAR     56  44  65 NW8       30.07R
WINDOM         CLEAR     52  45  76 W9        30.05S
WORTHINGTON    CLEAR     52  43  71 W10       30.08R
$$

IAZ001>003-012>014-020>022-031-032-NEZ013-014-SDZ071-240700-
NORTHWEST IOWA

CITY           SKY/WX    TMP DP  RH WIND       PRES   REMARKS
CHEROKEE       CLEAR     54  42  63 NW5       30.09R
DENISON        CLEAR     52  46  82 CALM      30.11S
ESTHERVILLE    CLEAR     52  48  86 NW10      30.05R
LE MARS        CLEAR     54  41  62 NW5       30.11R
ORANGE CITY    CLEAR     50  45  81 CALM      30.10R
SHELDON        CLEAR     54  43  66 W8        30.07S
SIOUX CITY     CLEAR     54  42  64 NW7       30.11R
6HR MIN TEMP:  54; 6HR MAX TEMP:  72;

SPENCER        CLEAR     52  46  80 NW10      30.07R
6HR MIN TEMP:  51; 6HR MAX TEMP:  68;

STORM LAKE     CLEAR     55  43  62 NW9       30.09R
$$

ABBREVIATIONS USED IN REMARKS
   TC - TEMPERATURE IN CELSIUS
  WCI - WIND CHILL INDEX
   HX - HEAT INDEX
  VSB - VISIBILITY





USA.gov is the U.S. government's official web portal to all federal, state and local government web resources and services.